Volver al catálogo

STARLINK-2635

ActivoComunicacionesVLEO
NORAD 48355·PAYLOAD·🇺🇸 United States

Lanzado May 4, 2021 desde Cape Canaveral Space Force Station

Loading…

Próximos Pases (próximas 24 horas)

TLE

ActualizadoSource: CelesTrak SupGP

Época: Sep 14, 2026, 13:25 UTC

1 48355C 21038C   26257.55951389 -.00019189  00000+0 -61733-3 0  2575
2 48355  53.1608 199.1513 0001388  87.2386 216.6490 15.31697284    18

Sigue STARLINK-2635 en tiempo real con AllMySat

Download on the App Store